Location: Unspecified
(47.9110°N, 14.3980°E)
Time: 05:35:24
(UTC+00:00)

Cosmos 1184 Rocket - Pass Details

Date: 06 August 2020
Orbit: 406 x 423 km, 81.2° (Epoch: 19 September)

Event Time Altitude Azimuth Distance (km) Brightness Sun altitude
Exits shadow 20:21:08 37° 123° (ESE) 679 3.3 -15.7°
Maximum altitude 20:21:42 41° 96° (E) 635 3.3 -15.7°
Drops below altitude 10° 20:24:50 10° 25° (NNE) 1,525 5.9 -16.1°
Sets 20:26:57 0° 18° (NNE) 2,397 7.0 -16.3°
